Powrót do katalogu

NUSAT-48

H. LEAVITT

AktywnyNaukaSSO
NORAD 60498·PAYLOAD·🇦🇷 Argentina

Wystrzelony Aug 16, 2024 z Vandenberg Space Force Base

Loading…

Następne Przeloty (najbliższe 24 godziny)

TLE

ŚwieżeSource: Space-Track

Epoka: Sep 13, 2026, 23:14 UTC

1 60498U 24149AG  26256.96854275  .00007329  00000-0  25366-3 0  9990
2 60498  97.3868 338.0011 0002086 344.0369  16.0806 15.30167156115712

Śledź NUSAT-48 w czasie rzeczywistym z AllMySat

Download on the App Store